Location: Piotrkow Trybunalski
(51.4000°N, 19.6830°E)
Time: 14:47:09
(UTC+01:00)

Vanguard 2 - Pass Details

Date: 06 February 2023
Orbit: 553 x 2927 km, 32.9° (Epoch: 24 March)

Event Time Altitude Azimuth Distance (km) Brightness Sun altitude
Rises 22:42:46 0° 247° (WSW) 5,537 12.0 -51.3°
Reaches altitude 10° 22:46:23 10° 240° (WSW) 4,825 11.5 -51.5°
Enters shadow 22:46:29 10° 240° (WSW) 4,805 11.5 -51.5°
Maximum altitude 22:59:17 39° 179° (S) 3,706 - -52.4°
Drops below altitude 10° 23:14:42 10° 120° (ESE) 5,729 - -53.2°
Sets 23:19:28 0° 114° (ESE) 6,646 - -53.4°
